Radiation Dose at Monitoring Post of Fukushima Daini Nuclear Power Station
Date,Time,MP-1(microSv/h),MP-2(microSv/h),MP-3(microSv/h),MP-4(microSv/h),MP-5(microSv/h),MP-6(microSv/h),MP-7(microSv/h),Wind Direction,Wind Velocity(m/s),Rain
2018/09/28,00:00,0.297,0.184,0.296,0.287,0.278,0.146,0.091,north-northwest,7.0,No
2018/09/28,00:10,0.296,0.184,0.296,0.286,0.275,0.146,0.091,north-northwest,7.4,No
2018/09/28,00:20,0.296,0.184,0.296,0.287,0.277,0.147,0.091,north-northwest,6.9,No
2018/09/28,00:30,0.297,0.184,0.295,0.286,0.277,0.146,0.092,north-northwest,9.2,No
2018/09/28,00:40,0.297,0.183,0.297,0.286,0.277,0.147,0.090,north-northwest,8.1,No
2018/09/28,00:50,0.298,0.184,0.294,0.288,0.276,0.146,0.091,north-northwest,7.1,No
2018/09/28,01:00,0.297,0.184,0.297,0.286,0.276,0.147,0.092,north-northwest,6.7,No
2018/09/28,01:10,0.298,0.185,0.295,0.287,0.276,0.146,0.091,north-northwest,5.7,No
2018/09/28,01:20,0.296,0.183,0.296,0.286,0.275,0.147,0.091,north-northwest,5.3,No
2018/09/28,01:30,0.297,0.184,0.297,0.287,0.276,0.146,0.091,north-northwest,5.4,No
2018/09/28,01:40,0.296,0.183,0.296,0.286,0.275,0.146,0.091,north,4.8,No
2018/09/28,01:50,0.299,0.183,0.298,0.287,0.278,0.147,0.090,north,4.1,No
2018/09/28,02:00,0.296,0.184,0.295,0.284,0.274,0.146,0.091,north-northeast,4.3,No
2018/09/28,02:10,0.297,0.185,0.297,0.286,0.276,0.147,0.091,north-northeast,4.7,No
2018/09/28,02:20,0.296,0.185,0.297,0.287,0.278,0.147,0.091,north,4.0,No
2018/09/28,02:30,0.296,0.184,0.296,0.286,0.276,0.146,0.091,north-northwest,4.4,No
2018/09/28,02:40,0.297,0.183,0.297,0.286,0.277,0.147,0.090,north-northwest,4.3,No
2018/09/28,02:50,0.295,0.185,0.295,0.286,0.275,0.147,0.091,north,4.3,No
2018/09/28,03:00,0.298,0.184,0.295,0.288,0.276,0.147,0.091,north,5.1,No
2018/09/28,03:10,0.295,0.184,0.297,0.286,0.276,0.146,0.092,north,7.8,No
2018/09/28,03:20,0.298,0.185,0.298,0.286,0.277,0.146,0.091,north,8.4,No
2018/09/28,03:30,0.297,0.184,0.296,0.286,0.275,0.148,0.091,north,9.8,No
2018/09/28,03:40,0.298,0.185,0.297,0.285,0.276,0.147,0.091,north-northwest,7.6,No
2018/09/28,03:50,0.297,0.184,0.297,0.286,0.277,0.147,0.092,north-northwest,7.7,No
2018/09/28,04:00,0.297,0.185,0.296,0.286,0.277,0.147,0.091,north-northwest,7.0,No
2018/09/28,04:10,0.298,0.185,0.298,0.289,0.278,0.148,0.091,north-northwest,6.4,No
2018/09/28,04:20,0.297,0.184,0.298,0.285,0.276,0.148,0.091,north-northwest,5.9,No
2018/09/28,04:30,0.299,0.186,0.297,0.288,0.279,0.147,0.091,north,6.9,No
2018/09/28,04:40,0.296,0.185,0.297,0.286,0.274,0.147,0.091,north,5.2,No
2018/09/28,04:50,0.298,0.184,0.297,0.286,0.278,0.148,0.091,north,5.3,No
2018/09/28,05:00,0.298,0.185,0.297,0.287,0.277,0.147,0.092,north,5.2,No
2018/09/28,05:10,0.298,0.184,0.296,0.286,0.276,0.147,0.092,north-northwest,5.4,No
2018/09/28,05:20,0.298,0.186,0.298,0.287,0.277,0.147,0.091,north,5.3,No
2018/09/28,05:30,0.296,0.184,0.296,0.286,0.276,0.146,0.092,north-northwest,4.2,No
2018/09/28,05:40,0.298,0.185,0.297,0.287,0.277,0.146,0.091,north-northwest,1.9,No
2018/09/28,05:50,0.297,0.184,0.298,0.287,0.276,0.146,0.091,north-northwest,2.7,No
2018/09/28,06:00,0.298,0.185,0.296,0.285,0.278,0.147,0.091,northwest,2.1,No
2018/09/28,06:10,0.297,0.185,0.298,0.286,0.276,0.146,0.092,northwest,1.8,No
2018/09/28,06:20,0.298,0.184,0.297,0.286,0.277,0.147,0.091,north-northwest,2.0,No
2018/09/28,06:30,0.298,0.184,0.297,0.288,0.276,0.148,0.091,north,2.8,No
2018/09/28,06:40,0.298,0.184,0.297,0.286,0.276,0.146,0.091,north,3.4,No
2018/09/28,06:50,0.298,0.185,0.296,0.286,0.277,0.145,0.090,north,2.6,No
2018/09/28,07:00,0.295,0.185,0.298,0.286,0.275,0.147,0.091,north,2.7,No
2018/09/28,07:10,0.298,0.184,0.296,0.287,0.278,0.147,0.091,north,2.7,No
2018/09/28,07:20,0.297,0.184,0.297,0.286,0.276,0.147,0.091,north-northeast,3.0,No
2018/09/28,07:30,0.298,0.185,0.298,0.288,0.277,0.147,0.090,north-northeast,2.9,No
2018/09/28,07:40,0.297,0.184,0.297,0.285,0.275,0.147,0.092,north,1.4,No
2018/09/28,07:50,0.297,0.183,0.297,0.288,0.278,0.147,0.092,north-northwest,1.1,No
2018/09/28,08:00,0.296,0.185,0.296,0.284,0.275,0.147,0.091,north,1.0,No
2018/09/28,08:10,0.297,0.183,0.297,0.288,0.276,0.147,0.091,-,CALM,No
2018/09/28,08:20,0.298,0.185,0.295,0.287,0.277,0.147,0.091,northeast,0.9,No
2018/09/28,08:30,0.298,0.183,0.298,0.283,0.276,0.148,0.092,east-northeast,1.5,No
2018/09/28,08:40,0.296,0.183,0.296,0.287,0.278,0.147,0.091,north-northeast,2.4,No
2018/09/28,08:50,0.298,0.185,0.298,0.288,0.275,0.148,0.090,north-northeast,2.6,No
2018/09/28,09:00,0.296,0.184,0.296,0.284,0.278,0.148,0.091,north-northeast,2.4,No
2018/09/28,09:10,0.298,0.184,0.297,0.284,0.277,0.146,0.091,northeast,2.1,No
2018/09/28,09:20,0.295,0.185,0.296,0.285,0.275,0.147,0.092,northeast,2.0,No
2018/09/28,09:30,0.298,0.184,0.299,0.289,0.274,0.148,0.090,northeast,2.2,No
2018/09/28,09:40,0.297,0.185,0.295,0.287,0.278,0.147,0.091,east,2.0,No
2018/09/28,09:50,0.294,0.185,0.299,0.286,0.276,0.147,0.091,east-northeast,1.8,No
2018/09/28,10:00,0.293,0.184,0.296,0.285,0.274,0.147,0.092,east,2.1,No
2018/09/28,10:10,0.294,0.184,0.297,0.284,0.273,0.148,0.091,east-northeast,2.1,No
2018/09/28,10:20,0.296,0.184,0.298,0.284,0.278,0.148,0.091,east-northeast,1.9,No
2018/09/28,10:30,0.298,0.185,0.295,0.285,0.278,0.147,0.091,northeast,3.1,No
2018/09/28,10:40,0.297,0.184,0.298,0.285,0.276,0.147,0.091,northeast,2.4,No
2018/09/28,10:50,0.295,0.184,0.297,0.286,0.274,0.148,0.092,northeast,2.1,No
2018/09/28,11:00,0.294,0.183,0.294,0.284,0.274,0.148,0.091,east-northeast,2.1,No
2018/09/28,11:10,0.297,0.185,0.297,0.284,0.277,0.147,0.092,east-northeast,2.3,No
2018/09/28,11:20,0.301,0.185,0.297,0.285,0.278,0.148,0.092,east-northeast,2.4,No
2018/09/28,11:30,0.298,0.185,0.296,0.290,0.278,0.149,0.092,east,2.1,No
2018/09/28,11:40,0.296,0.185,0.294,0.290,0.277,0.148,0.091,east-northeast,2.0,No
2018/09/28,11:50,0.297,0.184,0.294,0.289,0.274,0.148,0.092,east-northeast,1.7,No
2018/09/28,12:00,0.295,0.184,0.298,0.285,0.274,0.149,0.091,east,1.5,No
2018/09/28,12:10,0.300,0.184,0.298,0.286,0.279,0.149,0.091,east,1.1,No
2018/09/28,12:20,0.300,0.186,0.296,0.288,0.279,0.148,0.091,southeast,1.6,No
2018/09/28,12:30,0.298,0.185,0.295,0.289,0.278,0.148,0.091,east-southeast,1.3,No
2018/09/28,12:40,0.296,0.184,0.295,0.288,0.276,0.148,0.092,east,1.5,No
2018/09/28,12:50,0.299,0.184,0.299,0.289,0.276,0.148,0.092,south-southeast,1.8,No
2018/09/28,13:00,0.300,0.184,0.298,0.287,0.277,0.148,0.092,south-southeast,1.8,No
2018/09/28,13:10,0.297,0.184,0.298,0.288,0.276,0.148,0.092,southeast,1.6,No
2018/09/28,13:20,0.296,0.185,0.296,0.287,0.276,0.149,0.091,southeast,2.2,No
2018/09/28,13:30,0.295,0.183,0.295,0.287,0.277,0.150,0.092,east-southeast,2.2,No
2018/09/28,13:40,0.295,0.184,0.295,0.288,0.276,0.149,0.092,east,3.0,No
2018/09/28,13:50,0.299,0.185,0.296,0.287,0.277,0.150,0.091,east,2.8,No
2018/09/28,14:00,0.300,0.186,0.295,0.286,0.275,0.149,0.091,east,2.2,No
2018/09/28,14:10,0.298,0.185,0.296,0.288,0.275,0.149,0.092,east-southeast,1.9,No
2018/09/28,14:20,0.297,0.185,0.295,0.291,0.276,0.149,0.092,south-southeast,1.4,No
2018/09/28,14:30,0.296,0.185,0.296,0.291,0.277,0.149,0.092,southeast,2.1,No
2018/09/28,14:40,0.295,0.184,0.300,0.289,0.281,0.149,0.092,south-southeast,2.7,No
2018/09/28,14:50,0.296,0.186,0.299,0.292,0.280,0.151,0.092,southeast,1.5,No
2018/09/28,15:00,0.296,0.186,0.298,0.289,0.277,0.150,0.092,southeast,1.1,No
2018/09/28,15:10,0.300,0.186,0.302,0.289,0.281,0.149,0.092,southeast,1.3,No
2018/09/28,15:20,0.301,0.185,0.299,0.293,0.280,0.148,0.093,southeast,1.1,No
2018/09/28,15:30,0.299,0.186,0.299,0.288,0.277,0.148,0.092,southeast,1.3,No
2018/09/28,15:40,0.295,0.185,0.301,0.291,0.279,0.149,0.092,south-southeast,1.7,No
2018/09/28,15:50,0.301,0.187,0.298,0.291,0.281,0.150,0.092,south,1.0,No
2018/09/28,16:00,0.300,0.185,0.300,0.289,0.278,0.149,0.092,east-southeast,0.7,No
2018/09/28,16:10,0.299,0.186,0.299,0.291,0.277,0.149,0.092,southeast,1.5,No
2018/09/28,16:20,0.301,0.186,0.299,0.289,0.280,0.149,0.092,south-southeast,1.9,No
2018/09/28,16:30,0.300,0.186,0.299,0.290,0.280,0.150,0.092,south-southeast,1.7,No
2018/09/28,16:40,0.301,0.186,0.298,0.291,0.277,0.149,0.091,south,0.6,No
2018/09/28,16:50,0.299,0.185,0.301,0.288,0.281,0.150,0.092,south,0.8,No
2018/09/28,17:00,0.301,0.187,0.298,0.291,0.278,0.149,0.093,south,2.5,No
2018/09/28,17:10,0.299,0.185,0.300,0.289,0.281,0.149,0.092,south,1.5,No
2018/09/28,17:20,0.299,0.186,0.299,0.292,0.277,0.149,0.093,south,2.1,No
2018/09/28,17:30,0.299,0.186,0.301,0.290,0.279,0.150,0.092,south,1.9,No
2018/09/28,17:40,0.298,0.186,0.298,0.291,0.279,0.150,0.093,south,1.6,No
2018/09/28,17:50,0.301,0.186,0.300,0.289,0.281,0.149,0.092,south-southwest,1.3,No
2018/09/28,18:00,0.299,0.185,0.298,0.290,0.279,0.150,0.092,south-southwest,1.4,No
2018/09/28,18:10,0.301,0.187,0.301,0.291,0.279,0.149,0.092,southwest,1.5,No
2018/09/28,18:20,0.299,0.186,0.298,0.290,0.279,0.150,0.092,-,CALM,No
2018/09/28,18:30,0.301,0.186,0.301,0.289,0.278,0.149,0.091,-,CALM,No
2018/09/28,18:40,0.299,0.186,0.298,0.291,0.279,0.149,0.092,south,0.9,No
2018/09/28,18:50,0.301,0.185,0.301,0.290,0.278,0.149,0.091,-,CALM,No
2018/09/28,19:00,0.299,0.186,0.298,0.291,0.280,0.150,0.092,south-southeast,1.1,No
2018/09/28,19:10,0.302,0.187,0.300,0.291,0.278,0.150,0.091,south,1.3,No
2018/09/28,19:20,0.297,0.186,0.299,0.290,0.279,0.150,0.093,south-southwest,1.8,No
2018/09/28,19:30,0.301,0.188,0.301,0.290,0.279,0.149,0.092,south-southwest,1.5,No
2018/09/28,19:40,0.298,0.187,0.297,0.292,0.280,0.149,0.091,south,2.0,No
2018/09/28,19:50,0.301,0.187,0.302,0.290,0.279,0.150,0.093,south-southwest,1.8,No
2018/09/28,20:00,0.298,0.186,0.299,0.291,0.280,0.149,0.092,south-southwest,2.0,No
2018/09/28,20:10,0.302,0.186,0.300,0.292,0.278,0.150,0.093,south-southwest,1.0,No
2018/09/28,20:20,0.300,0.187,0.299,0.290,0.280,0.150,0.093,southwest,1.5,No
2018/09/28,20:30,0.301,0.186,0.299,0.291,0.278,0.149,0.093,southwest,0.6,No
2018/09/28,20:40,0.300,0.186,0.301,0.292,0.280,0.151,0.093,west-southwest,0.6,No
2018/09/28,20:50,0.300,0.186,0.301,0.290,0.277,0.150,0.093,south-southwest,1.6,No
2018/09/28,21:00,0.299,0.187,0.300,0.291,0.280,0.150,0.093,southwest,1.5,No
2018/09/28,21:10,0.301,0.185,0.299,0.290,0.279,0.150,0.093,southwest,1.7,No
2018/09/28,21:20,0.300,0.187,0.301,0.292,0.280,0.150,0.093,southwest,1.5,No
2018/09/28,21:30,0.300,0.188,0.299,0.288,0.278,0.149,0.093,southwest,1.9,No
2018/09/28,21:40,0.300,0.185,0.301,0.291,0.279,0.148,0.092,southwest,1.3,No
2018/09/28,21:50,0.300,0.187,0.298,0.291,0.279,0.150,0.093,west,0.7,No
2018/09/28,22:00,0.299,0.186,0.300,0.292,0.279,0.150,0.092,-,CALM,No
2018/09/28,22:10,0.300,0.186,0.299,0.291,0.279,0.150,0.092,-,CALM,No
2018/09/28,22:20,0.299,0.187,0.299,0.290,0.278,0.149,0.092,south-southwest,0.8,No
2018/09/28,22:30,0.299,0.186,0.301,0.291,0.278,0.150,0.092,southwest,1.3,No
2018/09/28,22:40,0.300,0.187,0.299,0.290,0.277,0.149,0.092,southwest,1.8,No
2018/09/28,22:50,0.299,0.186,0.300,0.291,0.279,0.149,0.092,southwest,2.3,No
2018/09/28,23:00,0.301,0.187,0.298,0.289,0.278,0.150,0.092,southwest,2.3,No
2018/09/28,23:10,0.300,0.187,0.300,0.291,0.280,0.149,0.092,south-southwest,3.3,No
2018/09/28,23:20,0.301,0.187,0.299,0.290,0.278,0.149,0.092,south-southwest,4.0,No
2018/09/28,23:30,0.301,0.187,0.301,0.291,0.280,0.150,0.092,south-southwest,4.1,No
2018/09/28,23:40,0.302,0.185,0.299,0.290,0.277,0.150,0.092,south-southwest,5.2,No
2018/09/28,23:50,0.300,0.187,0.300,0.290,0.279,0.149,0.092,south-southwest,5.2,No
